OV1-10 R/B, 2621

Orbit data source: Space-Track

OV1-10 R/B, 2621 is space debris in LEO originally from a launch on Sun, 11 Dec 1966 UTC launched from the Air Force Western Test Range (AFWTR). Debris objects in space refer to the collection of defunct objects orbiting the Earth. Examples of debris include non-operational satellites, rocket bodies, and fragments generated from explosions, collisions, or faulty payload assembly.

Loading next visibility...
Identifier
2621, 1966-111C
Orbit
LEO
Last TLE update
21 hours ago
Origin
Manufacturer
ABL
Mission
Spacecraft
Bus & Motor
ALTAIR, Unknown motor
Mass
125 kg wet, 125 kg dry
Launch date (UTC)
1966-12-11 (59 years ago)
Launch vehicle
Unknown
Launch site
Air Force Western Test Range (AFWTR)
Object type
Payload
Rocket body
Debris
Shape & HBR
Cyl, 2.1 m
Radar Cross Section
1.347 m², Large (>1 m²)

Expand to show TLE details & history

TLE from 21 hours ago
0 OV1-10 R/B
1 02621U 66111C   25170.59058130  .00000552  00000-0  64356-4 0  9992
2 02621  93.4047  50.1229 0054484 277.9601  81.5442 14.84776932120543
Epoch: 2025-06-19T14:10Z
TLE epoch observation values (Epoch: 2025-06-19T14:10:26.224Z)
Latitude
-0.00001°
Longitude
-70.54244°
Altitude
612.011 km
Speed
7.556 km/s
True Right ascension
03h 20m 29s
True Declination
0° 00' 00"
Sunlit
Object was in daylight at epoch
Visualization orbit readout
Latitude
0.78513°
Longitude
-70.21368°
Altitude
614.477 km
Speed
7.553 km/s
Apparent Right ascension
05h 56m 04s
Apparent Declination
-27° 18' 06"
Sunlit
Object is in daylight
Visualization observer readout
Local Sidereal Time
22:07:29
Azimuth
96.61° ESE
Elevation
-37.25°
Doppler factor
1
Orbital elements
Apogee altitude
649.256 km
Perigee altitude
573.095 km
Semi-major axis
6,989.312 km
Eccentricity
0.00545
Inclination
93.4047°
RAAN
50.1229°
Arg. of periapsis
277.9601°
True anomaly
Unknown
Mean anomaly
81.5442°
Eccentric anomaly
Unknown
Mean motion
3.71442 °/min
Orbital period
96.92 mins
BSTAR
0.000064356
Loading maneuver chart data...
Loading SW <> Apogee altitude chart data...
Loading historical data...
Loading historical data...
Loading historical data...
Loading historical data...
Loading historical data...
Loading historical data...
Loading historical data...
Other satellites on launch #111 in the year 1966 (1966-12-11 UTC)

OV1-10 R/B Visibility forecast

Observer location: undefined°, undefined°

Span
Click to sort rows by Start time (UTC) header in descending order
Start Az.
Max El. time (UTC)
Max El. Az.
Max El.
End time (UTC)
End Az.
8 mins2025-06-20 16:10:16.707Z171.19° S2025-06-20 16:14:16.707Z2.365° NNE44.437°2025-06-20 16:18:16.707Z353.839° N
6 mins2025-06-21 03:58:16.707Z38.671° NE2025-06-21 04:00:16.707Z78.823° E29.384°2025-06-21 04:04:16.707Z155.119° SSE
4 mins2025-06-21 05:35:16.707Z315.565° NNW2025-06-21 05:37:16.707Z280.802° WNW18.581°2025-06-21 05:39:16.707Z249.767° W
|